Regional Weather Roundup
Issued by NWS

Home | Current Version | Previous Version | Graphics & Text | Print | Product List | Glossary On
Versions: 1 2 3 4 5 6 7 8 9 10 11 12 13 14 15 16 17 18 19 20 21 22 23 24 25 26 27 28 29 30 31 32 33 34 35 36 37 38 39 40 41 42 43 44 45 46 47 48 49 50
000
ASUS43 KFSD 221502
RWRSD

WEATHER ROUNDUP FOR SOUTH DAKOTA
NATIONAL WEATHER SERVICE SIOUX FALLS SD
900 AM CST WED NOV 22 2017

NOTE: "FAIR" INDICATES FEW OR NO CLOUDS BELOW 12,000 FEET WITH NO
SIGNIFICANT WEATHER AND/OR OBSTRUCTIONS TO VISIBILITY.


SDZ001>005-009-010-012>017-221600-
NORTHWEST AND NORTH CENTRAL SOUTH DAKOTA

CITY           SKY/WX    TMP DP  RH WIND       PRES   REMARKS
BUFFALO          N/A     34  24  67 W8        29.90R WCI  27
FAITH            N/A     23  17  78 S8        29.97F WCI  14
MOBRIDGE       CLOUDY    27  15  61 S16       29.97F WCI  15
$$

SDZ012>016-024>037-041>051-057-063-072>074-221600-
SOUTHWEST AND SOUTH CENTRAL SOUTH DAKOTA

CITY           SKY/WX    TMP DP  RH WIND       PRES   REMARKS
RAPID CTY ARPT CLOUDY    38  27  64 CALM      30.02R
PIERRE         CLOUDY    23  16  74 SE7       30.05F WCI  15
CUSTER         CLOUDY    44  26  49 W6        30.08S
ELLSWORTH AFB  CLOUDY    39  29  68 W6        30.00S
PHILIP         CLOUDY    22  19  89 CALM      30.03S
PINE RIDGE     CLOUDY    34  29  82 W3        30.08F
SPEARFISH      FAIR      55  34  44 W15       30.02R
WINNER         FAIR      32  21  64 S14G22    30.07F WCI  22
$$

SDZ004>011-016>023-039-040-221600-
NORTHEAST SOUTH DAKOTA

CITY           SKY/WX    TMP DP  RH WIND       PRES   REMARKS
ABERDEEN       CLOUDY    18  12  77 S13       30.12F WCI   5
WATERTOWN      CLOUDY    18  13  80 S14       30.13F WCI   4
BROOKINGS      CLOUDY    19  11  70 S15       30.20F WCI   5
SISSETON         N/A     19  13  77 S12       30.16F WCI   7
$$

SDZ017-020-022-023-036>040-048>070-221600-
SOUTHEAST SOUTH DAKOTA

CITY           SKY/WX    TMP DP  RH WIND       PRES   REMARKS
SIOUX FALLS    PTSUNNY   21  12  68 S13       30.26F WCI   9
HURON          CLOUDY    19  13  77 S16       30.15F WCI   4
CHAMBERLAIN    CLOUDY    27  20  76 SE9       30.10S WCI  17
MITCHELL       CLOUDY    20  14  77 S16       30.17F WCI   6
YANKTON        CLOUDY    21  15  78 SE13      30.26F WCI   9
$$

ABBREVIATIONS USED IN REMARKS
   TC - TEMPERATURE IN CELSIUS
  WCI - WIND CHILL INDEX
   HX - HEAT INDEX
  VSB - VISIBILITY





USA.gov is the U.S. government's official web portal to all federal, state and local government web resources and services.